Binghamton, NY

11:27 PM EDT on October 23, 2019 (GMT -0400)
Binghamton Regional-Link

Weather History for KBGM - September, 2019

Change the Weather History Date:

Saturday, September 21, 2019

  Actual Average Record
Temperature  
Mean Temperature 64 °F 58 °F  
Max Temperature 78 °F 66 °F 83 °F (1965)
Min Temperature 50 °F 49 °F 31 °F (1956)
Degree Days  
Heating Degree Days 1 8  
Month to date heating degree days 95 106  
Since 1 July heating degree days 132 169  
Cooling Degree Days 0 1  
Month to date cooling degree days 9 28  
Year to date cooling degree days 371 376  
Growing Degree Days 14 (Base 50)    
Moisture  
Dew Point 52 °F    
Average Humidity 66    
Maximum Humidity 96    
Minimum Humidity 36    
Precipitation  
Precipitation 0.00 in 0.12 in 1.35 in (1983)
Month to date precipitation 1.60 2.50  
Year to date precipitation 30.39 28.71  
Snow  
Snow 0.00 in 0.00 in 0.00 in (2002)
Month to date snowfall 0.0 0.0  
Since 1 July snowfall 0.0 0.0  
Since 1 September snowfall 0.0 0.0  
Snow Depth 0.00 in    
Sea Level Pressure  
Sea Level Pressure 30.22 in    
Wind  
Wind Speed 2 mph (SSW)    
Max Wind Speed 10 mph    
Max Gust Speed 12 mph    
Visibility 10 miles    
Events      
T = Trace of Precipitation, MM = Missing Value Source: NWS Daily Summary

Daily Weather History Graph

Daily Weather History Graph

Search for Another Location

Airport or City:

Astronomy

Sep. 21, 2019 Rise Set
Actual Time 6:49 AM EDT 7:03 PM EDT
Civil Twilight 6:21 AM EDT 7:31 PM EDT
Nautical Twilight 5:49 AM EDT 8:04 PM EDT
Astronomical Twilight 5:15 AM EDT 8:37 PM EDT
Moon 11:31 PM EDT (9/21) 2:00 PM EDT (9/21)
Length of Visible Light 13h 09m
Length of Day
12h 13m
Waning Gibbous, 55% of the Moon is Illuminated
Sep 21
Waning Gibbous
Sep 21
Last Quarter
Sep 28
New
Oct 5
First Quarter
Oct 13
Full

Hourly Weather History & Observations

Time (EDT) Temp. Dew Point Humidity Pressure Visibility Wind Dir Wind Speed Gust Speed Precip Events Conditions
12:53 AM 57.9 °F 50.0 °F 75% 30.22 in 10.0 mi Calm Calm - N/A   Clear
1:53 AM 55.9 °F 50.0 °F 80% 30.23 in 10.0 mi Calm Calm - N/A   Clear
2:53 AM 55.0 °F 50.0 °F 83% 30.22 in 10.0 mi Calm Calm - N/A   Clear
3:53 AM 54.0 °F 51.1 °F 90% 30.22 in 10.0 mi Calm Calm - N/A   Clear
4:53 AM 53.1 °F 50.0 °F 89% 30.22 in 10.0 mi Calm Calm - N/A   Clear
5:53 AM 52.0 °F 50.0 °F 93% 30.23 in 10.0 mi SE 3.5 mph - N/A   Clear
6:53 AM 50.0 °F 48.0 °F 93% 30.24 in 10.0 mi Calm Calm - N/A   Clear
7:53 AM 54.0 °F 52.0 °F 93% 30.25 in 10.0 mi Calm Calm - N/A   Clear
8:53 AM 57.9 °F 53.1 °F 84% 30.26 in 10.0 mi Calm Calm - N/A   Clear
9:53 AM 63.0 °F 54.0 °F 72% 30.26 in 5.0 mi Calm Calm - N/A   Haze
10:53 AM 66.9 °F 55.9 °F 68% 30.26 in 10.0 mi Calm Calm - N/A   Clear
11:53 AM 70.0 °F 55.9 °F 61% 30.25 in 10.0 mi Calm Calm - N/A   Clear
12:53 PM 72.0 °F 55.0 °F 55% 30.23 in 10.0 mi Variable 3.5 mph - N/A   Clear
1:53 PM 75.0 °F 54.0 °F 48% 30.21 in 10.0 mi North - - N/A   Clear
2:53 PM 75.9 °F 46.0 °F 35% 30.20 in 10.0 mi Variable 4.6 mph - N/A   Clear
3:53 PM 77.0 °F 55.0 °F 47% 30.19 in 10.0 mi SSW 5.8 mph - N/A   Clear
4:53 PM 75.9 °F 52.0 °F 43% 30.19 in 10.0 mi SW 6.9 mph - N/A   Clear
5:53 PM 73.9 °F 51.1 °F 45% 30.19 in 10.0 mi SSW 6.9 mph - N/A   Clear
6:53 PM 71.1 °F 52.0 °F 51% 30.19 in 10.0 mi WSW 4.6 mph - N/A   Clear
7:53 PM 71.1 °F 50.0 °F 47% 30.19 in 10.0 mi WSW 4.6 mph - N/A   Clear
8:53 PM 70.0 °F 50.0 °F 49% 30.20 in 10.0 mi SW 3.5 mph - N/A   Clear
9:53 PM 68.0 °F 52.0 °F 56% 30.20 in 10.0 mi SSW 3.5 mph - N/A   Clear
10:53 PM 64.0 °F 52.0 °F 65% 30.19 in 10.0 mi South 3.5 mph - N/A   Clear
11:53 PM 63.0 °F 53.1 °F 70% 30.19 in 10.0 mi SSE 4.6 mph - N/A   Clear